| time (UTC) | temp F | wind direction | speed knots | gust knots | rain 1hr in | rain 24hr in | rain mn in | humidity % | barometer mb |
| 20260504081519 | 54 | 234 | 0.0 | 1.7 | 0.00 | 0.00 | 0.00 | 64 | 1016.0 |
| 20260504080520 | 54 | 247 | 0.0 | 0.9 | 0.00 | 0.00 | 0.00 | 62 | 1016.0 |
| 20260504050517 | 49 | 297 | 0.0 | 0.9 | 0.00 | 0.00 | 0.00 | 71 | 1016.2 |
| 20260504045537 | 49 | 299 | 0.0 | 0.9 | 0.00 | 0.00 | 0.00 | 71 | 1016.2 |
| 20260504044518 | 49 | 29 | 0.0 | 0.9 | 0.00 | 0.00 | 0.00 | 70 | 1016.3 |
| 20260504043518 | 48 | 32 | 0.0 | 0.9 | 0.00 | 0.00 | 0.00 | 71 | 1016.2 |
| 20260504042518 | 47 | 343 | 0.0 | 0.9 | 0.00 | 0.00 | 0.00 | 73 | 1016.3 |
| 20260504041518 | 47 | 310 | 0.0 | 0.9 | 0.00 | 0.00 | 0.00 | 77 | 1016.3 |
| 20260504040515 | 47 | 301 | 0.0 | 0.9 | 0.00 | 0.00 | 0.00 | 84 | 1016.2 |
| 20260504035516 | 46 | 332 | 0.0 | 0.9 | 0.00 | 0.00 | 0.00 | 81 | 1016.2 |
| 20260504034516 | 46 | 296 | 0.0 | 0.9 | 0.00 | 0.00 | 0.00 | 84 | 1016.1 |
| 20260504033516 | 47 | 308 | 0.0 | 0.9 | 0.00 | 0.00 | 0.00 | 83 | 1016.1 |
| 20260504032516 | 47 | 309 | 0.9 | 1.7 | 0.00 | 0.00 | 0.00 | 83 | 1015.9 |
| 20260504031516 | 47 | 290 | 0.0 | 0.9 | 0.00 | 0.00 | 0.00 | 82 | 1015.8 |
| 20260504030516 | 47 | 9 | 0.0 | 0.9 | 0.00 | 0.00 | 0.00 | 82 | 1015.8 |
| 20260504025516 | 47 | 295 | 0.0 | 1.7 | 0.00 | 0.00 | 0.00 | 81 | 1015.8 |
| 20260504024536 | 48 | 318 | 0.0 | 0.9 | 0.00 | 0.00 | 0.00 | 80 | 1015.8 |
| 20260504023517 | 48 | 340 | 0.0 | 0.9 | 0.00 | 0.00 | 0.00 | 79 | 1015.8 |
| 20260504022517 | 48 | 307 | 0.0 | 0.9 | 0.00 | 0.00 | 0.00 | 78 | 1015.8 |
| 20260504021517 | 49 | 313 | 0.0 | 0.9 | 0.00 | 0.00 | 0.00 | 77 | 1015.8 |
| 20260504020517 | 49 | 312 | 0.0 | 0.9 | 0.00 | 0.00 | 0.00 | 76 | 1015.7 |
| 20260504015518 | 50 | 293 | 0.0 | 0.9 | 0.00 | 0.00 | 0.00 | 74 | 1015.7 |
| 20260504014518 | 50 | 292 | 0.0 | 0.9 | 0.00 | 0.00 | 0.00 | 72 | 1015.7 |
| 20260504013518 | 50 | 298 | 0.9 | 1.7 | 0.00 | 0.00 | 0.00 | 72 | 1015.6 |
| 20260504012518 | 51 | 292 | 0.9 | 1.7 | 0.00 | 0.00 | 0.00 | 71 | 1015.5 |
| 20260504011515 | 52 | 295 | 0.0 | 1.7 | 0.00 | 0.00 | 0.00 | 67 | 1015.4 |
| 20260504010518 | 52 | 294 | 0.0 | 0.9 | 0.00 | 0.00 | 0.00 | 61 | 1015.4 |
| 20260504005515 | 53 | 277 | 0.0 | 0.9 | 0.00 | 0.00 | 0.00 | 60 | 1015.4 |
| 20260504004515 | 54 | 288 | 0.0 | 0.9 | 0.00 | 0.00 | 0.00 | 60 | 1015.3 |
| 20260504003516 | 56 | 259 | 0.0 | 0.9 | 0.00 | 0.00 | 0.00 | 53 | 1015.2 |
| 20260504002516 | 57 | 291 | 0.0 | 0.9 | 0.00 | 0.00 | 0.00 | 47 | 1015.0 |
| 20260504001516 | 58 | 288 | 0.0 | 0.9 | 0.00 | 0.00 | 0.00 | 42 | 1014.9 |
| 20260504000516 | 59 | 284 | 0.0 | 0.9 | 0.00 | 0.00 | 0.00 | 41 | 1014.9 |
| 20260503235516 | 60 | 263 | 0.0 | 0.9 | 0.00 | 0.00 | 0.00 | 39 | 1014.8 |
| 20260503234516 | 60 | 301 | 0.9 | 1.7 | 0.00 | 0.00 | 0.00 | 38 | 1014.6 |
| 20260503233517 | 61 | 310 | 1.7 | 2.6 | 0.00 | 0.00 | 0.00 | 38 | 1014.6 |
| 20260503232517 | 62 | 306 | 1.7 | 3.5 | 0.00 | 0.00 | 0.00 | 36 | 1014.5 |
| 20260503231517 | 63 | 318 | 1.7 | 5.2 | 0.00 | 0.00 | 0.00 | 34 | 1014.5 |
| 20260503230518 | 63 | 310 | 1.7 | 3.5 | 0.00 | 0.00 | 0.00 | 35 | 1014.5 |
| 20260503225538 | 63 | 315 | 3.5 | 6.1 | 0.00 | 0.00 | 0.00 | 34 | 1014.5 |
| 20260503224518 | 63 | 313 | 3.5 | 6.1 | 0.00 | 0.00 | 0.00 | 34 | 1014.6 |
| 20260503223535 | 64 | 314 | 2.6 | 5.2 | 0.00 | 0.00 | 0.00 | 34 | 1014.6 |
| 20260503222515 | 64 | 304 | 2.6 | 5.2 | 0.00 | 0.00 | 0.00 | 33 | 1014.4 |
| 20260503221535 | 64 | 317 | 2.6 | 5.2 | 0.00 | 0.00 | 0.00 | 33 | 1014.6 |
| 20260503220516 | 63 | 312 | 2.6 | 7.0 | 0.00 | 0.00 | 0.00 | 34 | 1014.6 |
| 20260503215515 | 63 | 319 | 2.6 | 4.3 | 0.00 | 0.00 | 0.00 | 34 | 1014.6 |
| 20260503214516 | 63 | 307 | 3.5 | 6.1 | 0.00 | 0.00 | 0.00 | 34 | 1014.6 |
| 20260503213516 | 62 | 316 | 3.5 | 6.1 | 0.00 | 0.00 | 0.00 | 35 | 1014.5 |
| 20260503212516 | 62 | 310 | 4.3 | 7.8 | 0.00 | 0.00 | 0.00 | 35 | 1014.6 |
| 20260503211516 | 61 | 312 | 3.5 | 6.1 | 0.00 | 0.00 | 0.00 | 37 | 1014.5 |
| 20260503210516 | 61 | 313 | 4.3 | 7.8 | 0.00 | 0.00 | 0.00 | 36 | 1014.5 |
| 20260503205557 | 61 | 299 | 4.3 | 8.7 | 0.00 | 0.00 | 0.00 | 36 | 1014.6 |
| 20260503204517 | 61 | 320 | 3.5 | 8.7 | 0.00 | 0.00 | 0.00 | 37 | 1014.7 |
| 20260503203517 | 61 | 306 | 2.6 | 5.2 | 0.00 | 0.00 | 0.00 | 38 | 1014.8 |
| 20260503202517 | 61 | 308 | 2.6 | 6.1 | 0.00 | 0.00 | 0.00 | 36 | 1014.9 |
| 20260503201537 | 61 | 308 | 2.6 | 7.8 | 0.00 | 0.00 | 0.00 | 37 | 1014.9 |
| 20260503200518 | 61 | 299 | 3.5 | 6.1 | 0.00 | 0.00 | 0.00 | 36 | 1015.1 |
| 20260503195518 | 61 | 311 | 3.5 | 7.0 | 0.00 | 0.00 | 0.00 | 37 | 1015.3 |
| 20260503194518 | 61 | 313 | 4.3 | 7.0 | 0.00 | 0.00 | 0.00 | 38 | 1015.3 |
| 20260503193518 | 60 | 309 | 3.5 | 7.0 | 0.00 | 0.00 | 0.00 | 38 | 1015.4 |
| 20260503192515 | 60 | 302 | 4.3 | 8.7 | 0.00 | 0.00 | 0.00 | 38 | 1015.5 |
| 20260503191515 | 60 | 305 | 3.5 | 6.1 | 0.00 | 0.00 | 0.00 | 38 | 1015.7 |
| 20260503190556 | 59 | 307 | 3.5 | 7.8 | 0.00 | 0.00 | 0.00 | 38 | 1015.8 |
| 20260503185516 | 59 | 300 | 4.3 | 7.8 | 0.00 | 0.00 | 0.00 | 38 | 1015.9 |
| 20260503184536 | 59 | 317 | 2.6 | 7.0 | 0.00 | 0.00 | 0.00 | 39 | 1015.9 |
| 20260503183516 | 59 | 288 | 5.2 | 8.7 | 0.00 | 0.00 | 0.00 | 38 | 1016.1 |
| 20260503182536 | 58 | 308 | 3.5 | 8.7 | 0.00 | 0.00 | 0.00 | 39 | 1016.1 |
| 20260503181516 | 58 | 301 | 2.6 | 7.0 | 0.00 | 0.00 | 0.00 | 38 | 1016.1 |
| 20260503180517 | 58 | 307 | 4.3 | 8.7 | 0.00 | 0.00 | 0.00 | 40 | 1016.1 |
| 20260503175517 | 57 | 321 | 3.5 | 7.0 | 0.00 | 0.00 | 0.00 | 39 | 1016.3 |
| 20260503174517 | 57 | 319 | 4.3 | 7.8 | 0.00 | 0.00 | 0.00 | 39 | 1016.4 |
| 20260503173517 | 56 | 298 | 3.5 | 7.8 | 0.00 | 0.00 | 0.00 | 39 | 1016.3 |
| 20260503172517 | 56 | 316 | 3.5 | 7.8 | 0.00 | 0.00 | 0.00 | 39 | 1016.4 |
| 20260503171538 | 57 | 301 | 4.3 | 8.7 | 0.00 | 0.00 | 0.00 | 39 | 1016.5 |
| 20260503170518 | 56 | 314 | 4.3 | 8.7 | 0.00 | 0.00 | 0.00 | 40 | 1016.5 |
| 20260503150516 | 51 | 297 | 3.5 | 7.8 | 0.00 | 0.00 | 0.00 | 45 | 1017.0 |
| 20260503130515 | 48 | 301 | 4.3 | 7.8 | 0.00 | 0.00 | 0.00 | 54 | 1017.1 |
| 20260503110517 | 44 | 311 | 5.2 | 8.7 | 0.00 | 0.00 | 0.00 | 65 | 1016.0 |